Regional Weather Roundup
Issued by NWS

Home | Current Version | Previous Version | Graphics & Text | Print | Product List | Glossary On
Versions: 1 2 3 4 5 6 7 8 9 10 11 12 13 14 15 16 17 18 19 20 21 22 23 24 25 26 27 28 29 30 31 32 33 34 35 36 37 38 39 40 41 42 43 44 45 46 47 48
000
ASUS45 KCYS 031910
RWRWY

WYOMING REGIONAL WEATHER ROUNDUP
NATIONAL WEATHER SERVICE CHEYENNE WY
100 PM MDT THU SEP 03 2015

NOTE:  "FAIR" INDICATES FEW OR NO CLOUDS BELOW 12,000 FEET
WITH NO SIGNIFICANT WEATHER AND/OR OBSTRUCTIONS TO VISIBILITY.

WYZ001-032000-
YELLOWSTONE NATIONAL PARK

CITY           SKY/WX    TMP DP  RH WIND       PRES   REMARKS
LK YELLOWSTONE   N/A     68  36  30 VRB6G21   30.07F
W YELLOWSTONE  NOT AVBL

$$
WYZ002>013-054>058-071-098>099-032000-
NORTHERN WYOMING

CITY           SKY/WX    TMP DP  RH WIND       PRES   REMARKS
JACKSON        PTSUNNY   79  36  21 S22G30    29.97F
CODY           FAIR      70  39  32 NE5       29.88F
GREYBULL       FAIR      79  36  21 W5        29.81F
WORLAND        FAIR      80  41  24 NE3       29.83F
SHERIDAN       FAIR      78  38  23 NW7       29.83F
BUFFALO        FAIR      82  37  20 SE9       29.89F
GILLETTE       FAIR      83  40  21 CALM      29.87F
HULETT         FAIR      82  41  23 W7        29.87F
NEWCASTLE      FAIR      88  36  15 S7        29.87F

$$
WYZ014>020-022>026-101>103-032000-
CENTRAL WYOMING

CITY           SKY/WX    TMP DP  RH WIND       PRES   REMARKS
BIG PINEY      FAIR      74  34  23 SW14G24   30.06F
PINEDALE       FAIR      72  36  26 S14       30.07F
DUBOIS         FAIR      72  32  23 W17G30    30.03F
LANDER         FAIR      80  36  20 SW6       29.91F
RIVERTON       FAIR      80  38  22 S7        29.93F
CASPER         FAIR      84  35  17 S12       29.95F
DOUGLAS        FAIR      88  37  16 NW6       29.93F

$$
WYZ021-027>030-104>119-032000-
SOUTHERN WYOMING

CITY           SKY/WX    TMP DP  RH WIND       PRES   REMARKS
EVANSTON       FAIR      76  29  17 SW23G32   30.07F
KEMMERER       FAIR     N/A N/A N/A SW15G25   30.08F
FORT BRIDGER   CLEAR     77  30  18 SW22G30   30.11F
ROCK SPRINGS   FAIR      76  37  24 E3        30.06F
DIXON          MOCLDY    77  41  27 S14G21    30.13F
RAWLINS        FAIR      78  37  22 SW21G30   30.08F
SARATOGA       FAIR      77  37  24 SW14G21   30.12F
LARAMIE        FAIR      77  36  22 MISG      30.12F
CHEYENNE       FAIR      83  37  19 SE8       30.05F
TORRINGTON     FAIR      92  41  17 VRB5      29.88F
PINE BLUFFS    MOCLDY    81  41  24 S10       30.00F

$$



USA.gov is the U.S. government's official web portal to all federal, state and local government web resources and services.